Location: Augirein
(42.9320°N, 0.9181°E)
Time: 13:46:03
(UTC+00:00)

Cosmos 1603 - Pass Details

Date: 20 June 2021
Orbit: 832 x 858 km, 71.0° (Epoch: 01 August)

Event Time Altitude Azimuth Distance (km) Brightness Sun altitude
Exits shadow 01:41:28 27° 245° (WSW) 1,567 4.7 -19.5°
Maximum altitude 01:44:07 45° 301° (WNW) 1,141 4.4 -19.3°
Drops below altitude 10° 01:49:32 10° 14° (NNE) 2,466 7.3 -18.8°
Sets 01:52:06 0° 20° (NNE) 3,400 8.5 -18.6°
